Regional Weather Roundup
Issued by NWS Upton, NY

Current Version | Previous Version | Text Only | Print | Product List | Glossary Off
Versions: 1 2 3 4 5 6 7 8 9 10 11 12 13 14 15 16 17 18 19 20 21 22 23 24 25 26 27 28 29 30 31 32 33 34 35 36 37 38 39 40 41 42 43 44 45 46 47 48 49 50
000 ASUS41 KOKX 290007 RWROKX REGIONAL WEATHER ROUNDUP NATIONAL WEATHER SERVICE NEW YORK NY 800 PM EDT SAT MAR 28 2015 NOTE: "FAIR" INDICATES FEW OR NO CLOUDS BELOW 12,000 FEET WITH NO SIGNIFICANT WEATHER AND/OR OBSTRUCTIONS TO VISIBILITY. NYZ071-072-176-178-NJZ106-104-290100- NEW YORK CITY METRO AREA CITY SKY/WX TMP DP RH WIND PRES REMARKS CENTRAL PARK CLOUDY 33 18 53 VRB6G18 30.02R WCI 28 LAGUARDIA APRT MOCLDY 33 21 61 NW20G28 30.00R WCI 21 KENNEDY INTL MOCLDY 35 22 58 NW20G25 29.99R WCI 24 NEWARK/LIBERTY MOCLDY 34 13 41 NW18 30.00R WCI 23 BRNX BOT. GARD N/A N/A N/A N/A N20 30.00S TETERBORO CLOUDY 32 19 58 NW16G22 30.01R WCI 21 $$ NYZ177-179-078>081-290100- LONG ISLAND NEW YORK CITY SKY/WX TMP DP RH WIND PRES REMARKS FARMINGDALE LGT SNOW 31 25 78 N12 29.98R WCI 22 ISLIP LGT SNOW 30 26 85 NW16G25 29.96R FOG WCI 19 SHIRLEY LGT SNOW 30 26 85 NW15 29.97R FOG WCI 19 WESTHAMPTON LGT SNOW 30 27 88 NW10 29.96R VSB 1 WCI 21 MONTAUK POINT N/A 33 32 96 NW6 29.94R WCI 28 $$ NYZ052-065-067-290100- HUDSON VALLEY CITY SKY/WX TMP DP RH WIND PRES REMARKS WHITE PLAINS LGT SNOW 28 24 85 NW15G24 29.97R VSB 1 WCI 16 NEWBURGH NOT AVBL MONTGOMERY CLOUDY 29 13 51 NW17G24 30.00R WCI 17 POUGHKEEPSIE FLURRIES 30 20 66 NW6 30.01R WCI 24 ALBANY LGT SNOW 28 22 78 NW6 30.03R WCI 22 $$ NJZ001-105-106-008-010-013-015-019>022-104-290100- NEW JERSEY CITY SKY/WX TMP DP RH WIND PRES REMARKS NEWARK/LIBERTY MOCLDY 34 13 41 NW18 30.00R WCI 23 TETERBORO CLOUDY 32 19 58 NW16G22 30.01R WCI 21 CALDWELL CLOUDY 32 10 40 NW15 30.01R WCI 22 MORRISTOWN PTCLDY 30 12 47 N12G18 30.03R WCI 21 SOMERVILLE CLOUDY 31 11 43 NW12G20 30.03R WCI 22 SUSSEX CLOUDY 28 9 44 NW8 30.03R WCI 20 ANDOVER N/A 26 8 46 N8 30.03R WCI 18 TRENTON PTCLDY 30 10 43 NW15G21 30.04R WCI 19 MILLVILLE MOCLDY 33 14 45 W16G28 30.06R WCI 23 ATLANTIC CITY CLOUDY 35 15 44 NW14 30.03R WCI 26 WRIGHTSTOWN PTCLDY 31 13 46 NW16 30.01R WCI 20 TOMS RIVER MOCLDY 34 12 40 NW16G29 30.02R WCI 23 BELMAR CLOUDY 34 10 37 NW22 30.00R WCI 22 $$ PAZ047>061-062-071-290100- EASTERN PENNSYLVANIA CITY SKY/WX TMP DP RH WIND PRES REMARKS PHILADELPHIA PTCLDY 33 11 39 NW22 30.08R WCI 21 ALLENTOWN CLOUDY 28 8 43 NW20G28 30.07R WCI 15 SCRANTON CLOUDY 24 4 42 N12G23 30.07R WCI 13 $$ CTZ002-004>006-009-010-012-RIZ004-006-007-MAZ004-011-015-290100- SOUTHERN NEW ENGLAND IN CT CITY SKY/WX TMP DP RH WIND PRES REMARKS BRADLEY INTL LGT SNOW 30 23 75 NW9G20 29.94R WCI 22 HARTFORD LGT SNOW 30 25 81 N13 29.96R WCI 20 DANBURY CLOUDY 28 21 75 W7 29.98R HAZE WCI 21 WTRBRY/OXFORD CLOUDY 27 18 69 NW7 29.95R WCI 19 BRIDGEPORT LGT SNOW 31 25 78 NW12 29.97R WCI 22 MERIDEN LGT SNOW 30 24 78 N8 29.96R WCI 22 NEW HAVEN LGT SNOW 30 26 85 N13 29.96R FOG WCI 20 CHESTER LGT SNOW 32 30 93 NW7G16 29.92R WCI 26 GROTON LGT SNOW 33 32 96 N10 29.93R VSB 1 WCI 25 WILLIMANTIC LGT SNOW 32 29 88 N8 29.93R FOG WCI 25 IN RI CITY SKY/WX TMP DP RH WIND PRES REMARKS PROVIDENCE LGT SNOW 33 31 92 NE6 29.92R VSB 1 WCI 28 BLOCK ISLAND CLOUDY 34 30 86 NE6 29.91R WCI 29 WESTERLY LGT SNOW 33 32 96 CALM 29.93R FOG IN MA CITY SKY/WX TMP DP RH WIND PRES REMARKS BOSTON LGT SNOW 34 31 88 NW7 29.91R FOG WCI 28 WORCESTER LGT SNOW 29 25 85 N13G23 29.87R FOG WCI 19 WESTFIELD CLOUDY 31 19 61 NW15 29.95R WCI 20 PROVINCETOWN MOCLDY 34 28 80 NE14G20 29.90R WCI 24 NANTUCKET FLURRIES 34 31 88 N15 29.89R WCI 24 $$ ANZ330-335-338-340-345-350-353-355-290100- COASTAL MARINE OBSERVATIONS STATION/POSITION TIME SKY/WX TEMP WIND PRES VSBY WAVE AIR SEA DIR/SP/G HT/PER (UTC) (F) (DEG/KT/KT) (MB) (MI) (FT/S) NY HARB ENTRANCE 2350 36 38 350/ 16/ 19 1014.6 3/11 4S FIRE IS 2303 36 N/A 3/11 20S FIRE ISLAND 2250 38 1013.2 4/11 23SW MTP 2350 N/A 5/11 HUDSON CANYON NOT AVBL EXECUTION ROCKS NOT AVBL WESTERN LI SOUND NOT AVBL CENTRAL LI SOUND NOT AVBL EASTERN LI SOUND NOT AVBL ROBBINS REEF 2300 36 320/ 16/ 20 1013.2 $$ >>>>>>>>>>>>>>>>>>>>>>>>>>>> KEY <<<<<<<<<<<<<<<<<<<<<<<<<<< > < > SKY/WX - SKY CONDITION/PRESENT WEATHER < > TMP - TEMPERATURE IN FAHRENHEIT < > DP - DEWPOINT IN FAHRENHEIT < > RH - RELATIVE HUMIDITY IN PERCENT < > WIND - DIRECTION AND SPEED IN MPH < > PRES - MEAN SEA LEVEL PRESSURE IN INCHES OF HG < > WCI - WIND CHILL INDEX < > VSB - VISIBILITY IN MILES < > HX - HEAT INDEX < > TC - TEMPERATURE IN CELSIUS < > VRB - VARIABLE WIND DIRECTION < > < >>>>>>>>>>>>>>>>>>>>>>>>>>>> KEY <<<<<<<<<<<<<<<<<<<<<<<<<<<

USA.gov is the U.S. government's official web portal to all federal, state and local government web resources and services.